Location: Boiro
(42.6475°N, 8.8834°W)
Time: 16:44:17
(UTC+01:00)

Explorer 11/Cluster Stage 4 - Pass Details

Date: 04 December 2021
Orbit: 467 x 1255 km, 28.8° (Epoch: 21 January)

Event Time Altitude Azimuth Distance (km) Brightness Sun altitude
Rises 06:04:22 0° 250° (WSW) 3,769 - -29.6°
Reaches altitude 10° 06:07:22 10° 239° (WSW) 2,930 - -29.0°
Exits shadow 06:11:39 25° 205° (SSW) 2,145 8.6 -28.2°
Maximum altitude 06:13:22 27° 184° (S) 2,087 8.7 -27.9°
Drops below altitude 10° 06:19:54 10° 131° (SE) 3,208 10.4 -26.7°
Sets 06:23:21 0° 120° (ESE) 4,190 11.4 -26.1°
